Weather in Arcos de la Frontera

Spain     36°45′05″N   5°48′41″W
temp.,
°C
wind,
m/s
gust,
m/s
humid.,
%
clouds,
%
prec.,
mm/h
press.,
hPa
HPBL,
m
14 may, fri
fri1423:00+14sse22833 0.0 101818
02:00+13n118887 0.0 101911
05:00+13n11900 0.0 101810
08:00+12wnw01920 0.0 101810
11:00+19n345588 0.0 1019699
14:00+25n45315 0.0 10181195
17:00+27n452582 0.0 10161474
20:00+25nw353172 0.0 1016260
15 may, sat
sat1523:00+16se116367 0.0 101711
02:00+17ene2249100 0.0 101711
05:00+16ene114525 0.0 101611
08:00+16e11456 0.0 101611
11:00+25n33295 0.0 1017510
14:00+30n43190 0.0 10161378
17:00+33nnw33150 0.0 10141667
20:00+30nnw35230 0.0 1014167
16 may, sun
sun1623:00+20sse114274 0.0 101511
02:00+18ne224270 0.0 101511
05:00+18nne33481 0.0 101422
08:00+18nne34570 0.0 101454
11:00+28nne45350 0.0 1015593
14:00+33nnw64210 0.0 10141675
17:00+33nnw55180 0.0 10131943
20:00+32nw11240 0.0 101243
17 may, mon
mon1723:00+22n333767 0.0 101526
02:00+19nne224796 0.0 101516
05:00+17n22578 0.0 101516
08:00+17n22635 0.0 101639
11:00+25nne56405 0.0 1016631
14:00+31nnw55245 0.0 10161317
17:00+33nw441946 0.0 10152020
20:00+28w58275 0.0 1016414
18 may, tue
tue1823:00+20s114331 0.0 101811
02:00+18nne224374 0.0 101913
05:00+16ese114828 0.0 101811
08:00+16se11532 0.0 102011
11:00+24nne01315 0.0 1021612
14:00+30nw22215 0.0 10201552
17:00+32nw32175 0.0 10182075
20:00+28wsw653352 0.0 1018595